SCP
0 0 0 0 0 0 0 0 0 1 2 3 5 6 7 7 7 7 7 8 7 6 6 6 8 8 7 5 3 3 4 6 6 7 6 5 4 4 4 5 4 4 4 4
0 0 0 0 1 1 1 1 1 1 3 4 5 7 8 8 7 6 6 6 6 6 6 5 6 7 7 5 5 5 6 6 6 6 6 5 5 4 5 4 4 4 4 4
1 1 0 0 1 2 2 2 2 3 4 5 7 8 9 10 9 7 5 5 5 6 7 7 7 8 8 8 8 8 6 5 5 5 5 5 5 5 5 5 5 4 4 3
1 1 1 0 1 2 3 4 4 5 5 6 7 7 8 10 9 7 5 4 5 7 8 9 9 8 9 10 9 8 6 4 4 4 4 4 5 5 6 6 6 5 4 3
0 1 1 1 1 2 3 5 6 6 6 6 5 5 6 7 7 5 4 5 6 6 7 7 7 6 7 7 7 5 4 4 3 3 3 3 3 4 5 6 6 5 3 3
0 1 1 1 1 1 3 4 5 5 4 4 4 5 5 4 4 4 4 6 6 5 4 4 4 4 4 3 3 3 3 3 3 3 3 2 2 3 4 5 5 4 3 2
0 1 1 1 1 1 2 2 3 3 3 3 3 4 4 4 3 3 5 7 8 6 3 2 2 3 3 2 2 3 3 2 2 2 2 2 2 3 3 3 4 4 3 2
1 1 1 1 1 1 1 2 2 3 3 3 3 3 3 2 2 3 5 8 8 6 4 2 2 2 3 2 3 4 4 3 3 2 2 3 3 3 2 2 3 3 3 2
1 1 1 1 1 2 2 2 3 4 4 3 2 2 2 2 2 3 5 7 8 7 5 3 2 1 1 2 2 4 5 4 3 3 3 3 3 3 2 2 2 3 2 2
1 1 1 1 1 2 2 3 4 4 4 3 3 3 3 3 4 4 5 6 7 7 6 4 2 2 1 1 2 3 4 4 3 3 2 2 2 2 2 2 2 2 2 2
1 1 1 1 1 1 2 3 4 4 4 3 3 3 3 4 5 6 5 4 5 6 6 5 3 2 2 2 2 2 2 3 3 2 2 1 1 2 2 2 2 2 2 2
1 1 1 1 1 1 2 3 4 5 5 4 4 3 3 3 5 6 5 3 4 5 6 5 4 3 3 3 3 2 2 3 3 3 2 1 1 1 1 1 1 1 1 1
1 1 1 1 1 1 2 3 3 4 5 5 5 4 3 3 3 4 5 3 3 4 5 5 5 4 4 4 4 4 4 4 5 5 3 2 1 1 1 1 0 0 0 0
1 1 1 1 0 1 1 1 2 3 4 5 5 5 5 5 4 4 3 3 2 3 4 5 5 5 5 6 7 6 6 7 8 7 5 2 1 1 1 1 0 0 0 0
1 1 1 0 0 0 0 1 1 2 3 4 4 4 5 5 5 5 4 3 3 2 3 4 5 5 6 9 11 11 10 11 11 10 6 3 1 1 1 1 0 0 0 0
1 1 0 0 0 1 1 1 1 1 1 2 3 4 4 4 4 5 6 5 4 4 3 4 5 5 8 13 15 15 14 13 12 10 6 2 1 0 0 1 1 1 1 0
0 0 0 0 0 1 1 1 1 1 1 1 2 3 4 4 4 5 6 7 7 6 5 4 4 6 10 15 17 16 14 12 10 8 4 2 1 0 0 1 1 1 1 1
0 0 0 0 0 1 1 1 1 1 1 1 1 2 3 4 5 6 6 7 8 7 6 4 4 6 9 13 14 12 10 8 6 5 3 1 1 1 1 1 1 1 1 1
0 0 0 0 0 0 1 1 1 1 1 1 1 1 1 2 4 6 7 6 6 5 5 4 4 5 6 7 7 6 5 4 3 2 2 1 1 1 1 1 1 1 1 1
0 0 0 0 0 0 0 1 1 1 1 1 1 1 0 1 2 3 5 6 5 4 3 3 3 3 4 4 3 3 3 3 2 2 2 2 1 1 1 1 1 1 1 1
0 0 0 0 0 0 0 0 1 1 1 1 1 1 0 0 1 1 3 5 5 5 4 3 3 3 4 4 3 4 4 4 3 3 2 2 2 1 1 1 1 1 2 2
0 0 0 0 0 0 0 0 1 1 1 1 1 1 1 0 1 1 2 3 4 5 5 4 3 3 4 4 4 4 4 4 4 3 2 2 1 1 1 1 1 1 2 2
0 1 1 1 1 1 1 1 0 0 1 1 1 1 1 0 1 1 2 2 3 4 6 5 4 3 3 4 4 4 4 3 3 2 2 1 1 1 1 1 1 1 1 1
1 1 1 1 1 1 1 1 0 0 1 1 1 1 1 1 1 2 2 2 2 3 5 5 4 3 2 3 3 3 3 2 1 1 1 1 1 1 1 1 1 1 0 0
1 1 1 1 1 1 1 1 1 1 1 1 1 1 1 1 2 2 2 2 1 1 3 4 3 2 3 3 3 3 2 1 1 1 1 1 1 1 1 1 1 0 0 0
1 1 1 1 1 1 1 1 1 1 1 1 1 1 1 1 2 2 2 2 1 1 1 2 2 2 4 5 4 4 3 2 2 1 1 1 1 1 1 1 1 0 0 0
2 2 1 2 2 2 2 2 1 1 1 1 1 1 1 2 2 2 2 2 2 1 1 2 2 3 4 6 6 5 4 3 3 2 1 1 2 1 1 1 1 1 1 0
Wind_Speed
2 2 1 2 3 2 1 4 5 4 4 4 3 1 2 4 4 4 4 5 5 4 3 4 4 3 3 3 3 4 4 4 4 4 4 4 3 4 3 3 3 3 2 2
4 3 4 4 5 3 1 1 3 3 1 3 1 2 4 5 6 5 3 4 5 4 4 4 4 4 3 3 3 3 4 3 3 2 2 3 3 3 3 3 3 3 2 2
3 5 4 4 3 2 2 1 3 3 3 0 3 3 2 3 4 4 4 4 5 4 4 3 3 3 4 3 3 3 3 2 2 2 2 3 3 3 4 4 3 3 2 2
0 3 1 4 2 2 4 4 2 2 3 3 4 4 3 3 4 3 3 3 3 2 2 2 2 2 2 3 3 3 2 2 2 2 2 2 2 3 4 3 3 3 3 3
2 1 3 4 4 1 2 3 5 3 4 3 5 6 4 2 1 2 4 3 3 3 2 3 3 3 3 2 3 2 2 2 2 2 2 2 2 3 3 3 2 2 2 3
3 2 4 4 5 2 5 2 4 3 2 2 4 4 2 2 1 2 2 2 2 2 3 3 2 4 3 1 2 2 2 2 1 2 2 2 2 2 2 2 3 2 2 3
3 3 3 4 5 4 3 4 3 1 0 1 1 3 3 1 1 1 2 2 2 3 3 2 2 4 3 1 1 2 1 1 1 1 1 1 1 2 2 2 2 2 2 2
2 2 4 5 4 2 3 2 1 1 1 2 1 0 1 1 1 1 1 2 3 3 2 1 2 4 3 2 2 1 1 1 1 1 1 1 0 1 1 2 2 2 2 2
3 3 4 1 2 1 2 2 1 2 1 2 2 1 1 1 1 1 1 1 2 3 2 1 1 3 3 3 1 1 1 0 1 1 1 0 1 1 2 1 2 2 2 3
2 1 2 2 3 2 1 1 0 1 2 3 2 1 1 0 1 1 1 1 2 2 2 1 1 1 2 2 1 1 1 1 1 1 1 1 1 1 2 2 2 2 2 3
0 2 3 3 3 2 2 2 3 2 2 2 2 0 1 0 0 0 0 1 1 2 2 2 1 1 1 1 1 1 1 1 1 1 2 1 1 1 2 2 3 3 3 3
3 4 2 4 4 2 2 2 1 2 2 2 1 1 1 1 0 0 0 1 0 0 1 2 1 1 1 1 1 2 1 1 1 1 1 1 1 1 2 2 2 2 4 3
3 2 2 3 2 2 2 2 2 2 3 2 2 1 1 1 1 1 1 0 1 2 2 1 1 1 2 2 2 2 2 2 1 1 1 1 1 1 1 3 2 2 2 2
1 0 1 2 2 2 1 2 3 3 3 2 1 2 2 1 1 1 2 2 2 1 1 1 1 2 2 2 2 2 2 2 2 2 2 2 2 2 2 2 2 2 2 2
2 1 2 2 1 1 1 2 3 2 3 2 2 2 2 1 2 2 2 2 1 0 1 0 1 3 2 1 2 2 2 2 2 2 2 2 1 1 2 2 2 2 1 2
1 1 1 1 1 1 1 1 1 0 1 1 2 2 2 1 2 2 2 1 1 1 2 2 3 4 2 2 2 2 2 4 3 2 2 1 1 1 2 2 2 2 2 2
1 1 1 1 0 0 1 1 2 2 1 0 1 2 2 2 2 2 2 2 1 2 2 2 3 3 2 2 2 2 2 2 2 1 1 2 1 2 2 2 2 2 2 2
2 2 2 2 2 1 1 1 1 1 1 1 1 1 1 1 2 2 3 2 1 1 1 1 1 1 1 2 1 2 2 2 2 2 2 1 1 2 1 1 2 2 1 1
1 1 1 1 1 1 1 1 1 1 1 0 0 1 1 1 2 2 2 1 0 1 3 2 1 1 1 2 2 1 1 2 1 1 1 1 1 1 1 1 1 1 1 1
2 2 1 1 1 1 1 1 1 1 1 1 0 1 1 2 2 2 1 1 2 2 3 2 1 1 2 2 2 1 2 1 1 2 1 1 2 2 1 1 2 1 1 1
2 3 2 1 1 1 1 1 1 1 1 0 0 1 1 2 2 1 0 1 3 3 2 2 2 2 2 2 2 1 2 1 1 1 1 1 1 2 2 2 1 2 1 1
2 2 1 1 1 1 1 1 1 1 1 0 1 1 1 1 2 1 1 2 3 3 2 2 2 2 2 2 1 1 1 1 1 1 1 1 1 1 1 1 1 1 1 1
2 2 1 1 1 2 1 1 1 1 1 1 1 1 1 2 1 1 2 3 2 2 2 1 2 2 2 1 1 1 1 1 1 1 1 1 1 1 1 1 1 1 1 1
2 2 1 2 1 0 1 2 2 1 1 1 2 3 2 2 2 2 3 3 2 1 1 2 2 2 1 1 1 1 1 1 1 1 0 0 0 0 0 1 1 1 1 1
3 2 2 1 1 2 2 2 1 1 2 2 2 2 2 2 3 3 2 2 2 1 0 1 2 2 1 1 1 1 1 1 1 1 0 0 0 0 0 0 0 0 0 1
2 2 2 3 2 2 2 1 1 1 1 1 1 1 1 1 1 0 0 1 1 1 0 1 1 0 0 1 1 1 1 1 2 1 1 1 1 1 1 0 0 0 0 0
2 1 1 1 1 1 1 1 1 1 1 1 1 1 1 0 0 0 0 1 0 0 0 0 0 1 1 1 1 1 1 1 1 1 1 1 1 1 1 0 1 0 0 1
Wind_Direction
231 243 349 339 329 329 155 180 175 210 196 250 260 196 114 106 104 109 116 123 131 136 142 136 131 140 146 160 179 180 175 184 197 206 209 207 202 200 198 196 203 207 210 226
340 341 10 359 356 8 32 99 130 115 256 262 256 110 91 98 108 120 121 115 118 122 130 142 153 160 156 165 178 170 172 181 183 183 192 200 200 196 191 196 203 193 201 215
302 316 15 344 339 29 51 32 135 166 230 167 75 90 114 119 117 117 134 135 133 137 146 152 169 167 165 174 161 141 158 170 177 179 186 197 197 186 191 201 199 191 204 197
199 21 242 248 304 55 79 38 52 111 117 124 125 123 109 105 119 123 123 107 104 111 121 129 126 133 148 145 140 141 147 157 181 186 196 203 197 203 211 202 194 199 209 211
128 187 267 310 326 325 90 13 12 64 101 97 93 77 45 5 62 141 145 136 143 142 129 105 103 106 102 110 120 123 152 181 188 184 189 192 212 223 221 198 194 205 206 208
142 165 225 255 297 311 92 24 349 36 66 71 70 75 281 300 8 74 97 107 119 127 110 112 124 118 109 115 132 157 183 199 192 189 188 202 220 223 223 207 203 199 220 221
172 200 243 276 315 29 95 230 293 17 76 56 102 192 223 270 32 92 128 137 129 128 129 142 129 117 117 134 219 230 202 191 191 193 206 214 227 231 223 214 200 206 229 243
132 157 262 315 28 92 202 220 202 95 104 115 132 110 45 66 67 64 93 118 135 129 119 115 129 131 138 197 241 238 144 183 225 234 241 238 167 301 262 216 207 229 237 254
173 202 250 337 117 177 157 136 155 133 160 147 132 113 51 42 27 50 101 121 141 137 129 133 161 159 174 223 224 165 121 226 244 260 267 249 190 248 280 255 207 227 225 236
61 318 321 30 43 31 53 103 195 137 142 129 128 182 145 79 32 6 3 105 138 134 144 193 208 203 216 232 176 138 186 252 255 254 280 286 243 232 236 236 228 233 233 232
358 292 354 358 356 346 5 34 38 34 61 94 104 112 167 122 90 224 357 19 102 151 177 215 223 237 239 214 173 181 223 251 260 252 241 251 260 257 248 247 229 221 232 219
225 241 217 270 288 345 38 26 33 59 46 37 80 112 116 116 33 -0 43 53 24 226 216 230 210 229 246 214 210 205 235 264 250 241 238 224 212 327 327 271 277 253 233 215
216 248 213 253 318 0 7 19 32 71 80 55 36 61 81 96 74 23 359 305 253 262 253 242 220 232 245 222 211 223 236 244 251 248 239 229 214 206 273 318 332 319 283 232
252 70 356 311 303 334 16 54 62 68 70 62 39 43 48 21 356 352 300 275 278 280 268 278 276 261 257 228 224 240 242 236 237 243 244 237 227 218 217 234 282 305 298 263
291 234 220 255 306 347 52 65 58 41 35 20 27 36 36 356 293 274 272 290 305 240 202 263 286 279 274 244 231 242 251 251 245 244 248 250 245 227 225 235 247 265 283 297
310 34 98 97 59 79 113 111 110 313 2 352 353 341 330 315 285 279 285 285 201 221 222 216 245 263 265 231 230 249 255 262 262 242 245 255 248 244 248 234 236 245 249 246
66 52 83 94 122 209 203 203 205 208 208 253 286 302 327 343 334 317 306 307 264 232 220 221 249 274 265 226 225 253 263 260 257 245 236 237 238 240 248 241 237 241 245 233
195 213 206 187 182 198 258 270 227 199 203 238 283 333 330 306 279 282 282 295 338 350 327 276 271 309 298 271 246 258 259 258 242 233 235 243 247 250 252 245 240 243 260 251
265 259 269 257 220 193 216 241 233 221 217 186 2 313 292 283 287 293 306 340 9 322 304 296 297 308 281 284 293 269 269 270 259 241 226 239 250 257 243 239 238 229 226 238
357 342 327 294 279 223 216 235 220 216 235 194 352 338 325 313 311 305 302 280 263 255 269 280 256 264 272 278 300 275 270 266 245 231 221 237 241 246 242 231 230 226 222 216
349 354 355 335 309 288 236 205 176 197 233 185 167 251 269 297 309 308 13 309 297 298 287 273 256 266 286 296 289 285 285 284 266 237 225 237 247 252 251 245 235 224 224 231
314 316 308 325 339 311 287 218 190 205 224 267 288 285 311 313 321 331 291 251 268 287 295 273 262 277 302 309 282 282 289 286 274 245 230 234 233 242 253 245 230 227 232 240
298 285 276 282 270 274 302 303 235 207 220 238 245 247 257 260 251 233 288 286 277 290 301 289 295 296 294 293 279 279 288 293 268 248 236 231 236 242 251 254 246 239 241 245
297 284 255 266 279 301 297 286 277 259 258 261 253 239 223 235 269 257 235 243 260 291 309 316 326 320 319 332 318 315 331 335 332 303 261 203 232 255 258 256 264 268 256 266
265 258 260 273 263 246 246 268 306 315 304 286 279 261 228 210 221 248 250 231 233 233 265 321 337 328 331 347 348 342 354 2 333 311 327 0 319 285 288 344 345 309 291 277
253 237 230 224 218 228 237 233 260 269 260 260 292 288 279 263 232 231 296 276 238 236 256 275 308 347 33 9 359 355 348 348 354 351 12 10 340 304 276 287 0 329 292 301
267 251 235 242 255 236 212 198 211 234 202 186 229 258 258 319 43 356 275 256 228 215 236 279 3 358 23 30 18 23 21 13 13 36 49 40 8 336 317 154 128 124 102 73